DELTA 1 R/B, 6921

Orbit data source: Space-Track

DELTA 1 R/B, 6921 is space debris in SSO originally from a launch on Tue, 06 Nov 1973 UTC launched from the Air Force Western Test Range (AFWTR). Debris objects in space refer to the collection of defunct objects orbiting the Earth. Examples of debris include non-operational satellites, rocket bodies, and fragments generated from explosions, collisions, or faulty payload assembly.

Loading next visibility...
Identifier
6921, 1973-086B
Orbit
SSO
Country
Flag of USUS
Related business
Manufacturer
Aerojet
Mission
Spacecraft
Bus & Motor
DSV-3E-5, AJ10-118F
Mass
756 kg wet, 756 kg dry
Launch date (UTC)
1973-11-06 (52 years ago)
Launch vehicle
Unknown
Launch site
Air Force Western Test Range (AFWTR)
Object type
Payload
Rocket body
Debris
Shape & HBR
Unknown
Radar Cross Section
Large (>1 m²)

Expand to show TLE details & history
Last TLE update: 20 hours ago

TLE from 20 hours ago
0 DELTA 1 R/B
1 06921U 73086B   25292.27536943 -.00000022  00000-0  19273-3 0  9991
2 06921 102.3684 315.2325 0014642 348.9310  11.1426 12.37061695360543
Epoch: 2025-10-19T06:36Z
TLE epoch observation values (Epoch: 2025-10-19T06:36:31.918Z)
Latitude
-0.00008°
Longitude
-171.89484°
Altitude
1,510.268 km
Speed
7.115 km/s
True Right ascension
21h 00m 55s
True Declination
0° 00' 00"
Sunlit
Object was in daylight at epoch
Visualization orbit readout
Latitude
Unknown
Longitude
Unknown
Altitude
Unknown
Speed
Unknown
Apparent Right ascension
Unknown
Apparent Declination
Unknown
Sunlit
N/A
Visualization observer readout
Local Sidereal Time
21:38:55
Azimuth
Unknown
Elevation
Unknown
Doppler factor
Unknown
Orbital elements
Apogee altitude
1,528.244 km
Perigee altitude
1,505.125 km
Semi-major axis
7,894.821 km
Eccentricity
0.00146
Inclination
102.3684°
RAAN
315.2325°
Arg. of periapsis
348.931°
True anomaly
11.17508°
Mean anomaly
11.1426°
Eccentric anomaly
11.15884°
Mean motion
3.09407 °/min
Orbital period
116.35 mins
BSTAR
0.00019273
Loading maneuver chart data...
Computing Atmospheric mass density...
Loading historical data...
Loading historical data...
Loading historical data...
Loading historical data...
Loading historical data...
Loading historical data...
Loading historical data...

Documentation

Showing up to 5 results
|